| time (UTC) | temp C | wind direction | speed KPH | gust KPH | rain 1hr cm | rain 24hr cm | rain mn cm | humidity % | barometer mb |
| 20260503070147 | 12 | 56 | 9.7 | 14.5 | 0.00 | 0.00 | 0.00 | 31 | 867.3 |
| 20260503060139 | 11 | 56 | 11.3 | 17.7 | 0.00 | 0.00 | 0.00 | 40 | 867.3 |
| 20260503050128 | 11 | 53 | 16.1 | 20.9 | 0.00 | 0.00 | 0.00 | 40 | 867.3 |
| 20260503040116 | 11 | 61 | 14.5 | 22.5 | 0.00 | 0.00 | 0.00 | 44 | 867.2 |
| 20260503031857 | 12 | 51 | 22.5 | 37.0 | 0.00 | 0.00 | 0.00 | 39 | 866.7 |
| 20260503020123 | 15 | 259 | 3.2 | 8.0 | 0.00 | 0.00 | 0.00 | 26 | 866.8 |
| 20260503015002 | 13 | 250 | 9.7 | 16.1 | 0.00 | 0.00 | 0.00 | 31 | 866.6 |
| 20260503001912 | 15 | 271 | 19.3 | 24.1 | 0.00 | 0.00 | 0.00 | 29 | 866.7 |
| 20260502233925 | 16 | 206 | 14.5 | 22.5 | 0.00 | 0.00 | 0.00 | 32 | 867.0 |
| 20260502220150 | 16 | 132 | 12.9 | 24.1 | 0.00 | 0.00 | 0.00 | 32 | 867.4 |
| 20260502210135 | 15 | 223 | 11.3 | 19.3 | 0.00 | 0.00 | 0.00 | 32 | 867.8 |
| 20260502200318 | 14 | 132 | 12.9 | 22.5 | 0.00 | 0.00 | 0.00 | 30 | 868.1 |
| 20260502192011 | 13 | 192 | 11.3 | 22.5 | 0.00 | 0.00 | 0.00 | 31 | 868.4 |
| 20260502181103 | 13 | 142 | 19.3 | 29.0 | 0.00 | 0.00 | 0.00 | 33 | 868.4 |
| 20260502170137 | 12 | 123 | 14.5 | 29.0 | 0.00 | 0.00 | 0.00 | 30 | 868.3 |
| 20260502162706 | 11 | 108 | 22.5 | 32.2 | 0.00 | 0.00 | 0.00 | 30 | 867.9 |
| 20260502150216 | 10 | 93 | 19.3 | 27.4 | 0.00 | 0.00 | 0.00 | 36 | 867.8 |
| 20260502140129 | 8 | 96 | 17.7 | 24.1 | 0.00 | 0.00 | 0.00 | 39 | 867.9 |
| 20260502130148 | 8 | 93 | 20.9 | 25.7 | 0.00 | 0.00 | 0.00 | 36 | 867.7 |
| 20260502120111 | 8 | 106 | 16.1 | 20.9 | 0.00 | 0.00 | 0.00 | 36 | 867.9 |
| 20260502110144 | 8 | 97 | 11.3 | 17.7 | 0.00 | 0.00 | 0.00 | 39 | 868.2 |
| 20260502100126 | 8 | 80 | 12.9 | 16.1 | 0.00 | 0.00 | 0.00 | 46 | 868.2 |
| 20260502090122 | 8 | 109 | 11.3 | 20.9 | 0.00 | 0.00 | 0.00 | 43 | 868.5 |